Location: Stoke Bliss
(52.2667°N, 2.5167°W)
Time: 18:59:59
(UTC+00:00)

SJ 16-02 - Pass Details

Date: 03 March 2021
Orbit: 605 x 617 km, 75.0° (Epoch: 17 April)

Event Time Altitude Azimuth Distance (km) Brightness Sun altitude
Rises 19:32:15 0° 341° (NNW) 2,884 5.2 -15.9°
Reaches altitude 10° 19:34:41 10° 351° (N) 1,977 4.2 -16.2°
Maximum altitude 19:38:41 33° 56° (NE) 1,042 2.1 -16.8°
Enters shadow 19:39:29 31° 78° (ENE) 1,093 2.1 -16.9°
